Time,TemperatureF,DewpointF,PressureIn,WindDirection,WindDirectionDegrees,WindSpeedMPH,WindSpeedGustMPH,Humidity,HourlyPrecipIn,Conditions,Clouds,dailyrainin,SoftwareType,DateUTC
2013-07-11 00:00:00,61.4,56.9,29.88,NE,45,2.0,0.0,85,0.00,,OVC003,0.00,VWS V14.01,2013-07-11 04:00:00,
2013-07-11 00:01:00,61.4,56.9,29.88,NE,45,2.0,0.0,85,0.00,,OVC003,0.00,VWS V14.01,2013-07-11 04:01:00,
2013-07-11 00:03:00,61.4,56.9,29.88,NE,45,2.0,0.0,85,0.00,,OVC003,0.00,VWS V14.01,2013-07-11 04:03:00,
2013-07-11 00:04:00,61.4,56.9,29.88,NE,45,2.0,0.0,85,0.00,,OVC003,0.00,VWS V14.01,2013-07-11 04:04:00,
2013-07-11 00:05:00,61.1,56.6,29.89,NE,45,2.0,0.0,85,0.00,,OVC003,0.00,VWS V14.01,2013-07-11 04:05:00,
2013-07-11 00:09:00,61.2,56.7,29.89,NE,45,2.0,0.0,85,0.00,,OVC003,0.00,VWS V14.01,2013-07-11 04:09:00,
2013-07-11 00:10:00,61.2,56.7,29.89,NE,45,2.0,0.0,85,0.00,,OVC003,0.00,VWS V14.01,2013-07-11 04:10:00,
2013-07-11 00:11:00,61.2,56.7,29.89,NE,45,2.0,0.0,85,0.00,,OVC003,0.00,VWS V14.01,2013-07-11 04:11:00,
2013-07-11 00:15:00,60.8,56.3,29.89,NE,45,2.0,0.0,85,0.00,,OVC003,0.00,VWS V14.01,2013-07-11 04:15:00,
2013-07-11 00:16:00,61.0,56.5,29.89,NE,45,2.0,0.0,85,0.00,,OVC003,0.00,VWS V14.01,2013-07-11 04:16:00,
2013-07-11 00:20:00,60.7,56.5,29.89,NE,45,2.0,0.0,86,0.00,,OVC003,0.00,VWS V14.01,2013-07-11 04:20:00,
2013-07-11 00:21:00,60.9,56.4,29.89,NE,45,2.0,0.0,85,0.00,,OVC003,0.00,VWS V14.01,2013-07-11 04:21:00,
2013-07-11 00:25:00,60.5,56.3,29.89,NE,45,2.0,0.0,86,0.00,,OVC003,0.00,VWS V14.01,2013-07-11 04:25:00,
2013-07-11 00:26:00,60.7,56.5,29.89,NE,45,2.0,0.0,86,0.00,,OVC003,0.00,VWS V14.01,2013-07-11 04:26:00,
2013-07-11 00:30:00,60.4,56.2,29.90,NE,45,2.0,2.0,86,0.00,,OVC003,0.00,VWS V14.01,2013-07-11 04:30:00,
2013-07-11 00:31:00,60.6,56.4,29.89,NE,45,2.0,0.0,86,0.00,,OVC003,0.00,VWS V14.01,2013-07-11 04:31:00,
2013-07-11 00:35:00,60.2,56.3,29.90,NE,45,2.0,0.0,87,0.00,,OVC003,0.00,VWS V14.01,2013-07-11 04:35:00,
2013-07-11 00:36:00,60.4,56.2,29.89,NE,45,2.0,2.0,86,0.00,,OVC003,0.00,VWS V14.01,2013-07-11 04:36:00,
2013-07-11 00:40:00,60.1,56.2,29.90,NE,45,2.0,0.0,87,0.00,,OVC003,0.00,VWS V14.01,2013-07-11 04:40:00,
2013-07-11 00:41:00,60.3,56.4,29.90,NE,45,2.0,0.0,87,0.00,,OVC003,0.00,VWS V14.01,2013-07-11 04:41:00,
2013-07-11 00:45:00,60.0,56.1,29.90,NE,45,2.0,0.0,87,0.00,,OVC003,0.00,VWS V14.01,2013-07-11 04:45:00,
2013-07-11 00:46:00,60.2,56.3,29.90,NE,45,2.0,0.0,87,0.00,,OVC003,0.00,VWS V14.01,2013-07-11 04:46:00,
2013-07-11 00:50:00,59.8,55.9,29.90,NE,45,2.0,0.0,87,0.00,,OVC003,0.00,VWS V14.01,2013-07-11 04:50:00,
2013-07-11 00:51:00,60.0,56.1,29.90,NE,45,2.0,0.0,87,0.00,,OVC003,0.00,VWS V14.01,2013-07-11 04:51:00,
2013-07-11 00:55:00,59.7,55.8,29.90,NE,45,2.0,0.0,87,0.00,,OVC003,0.00,VWS V14.01,2013-07-11 04:55:00,
2013-07-11 00:56:00,59.8,55.9,29.90,NE,45,2.0,0.0,87,0.00,,OVC003,0.00,VWS V14.01,2013-07-11 04:56:00,
2013-07-11 01:00:00,59.6,56.0,29.90,NE,45,2.0,0.0,88,0.00,,OVC003,0.00,VWS V14.01,2013-07-11 05:00:00,
2013-07-11 01:01:00,59.8,55.9,29.90,NE,45,2.0,0.0,87,0.00,,OVC003,0.00,VWS V14.01,2013-07-11 05:01:00,
2013-07-11 01:05:00,59.4,55.8,29.90,NE,45,2.0,0.0,88,0.00,,OVC003,0.00,VWS V14.01,2013-07-11 05:05:00,
2013-07-11 01:06:00,59.6,56.0,29.90,NE,45,2.0,0.0,88,0.00,,OVC003,0.00,VWS V14.01,2013-07-11 05:06:00,
2013-07-11 01:10:00,59.3,55.8,29.90,NE,45,2.0,0.0,88,0.00,,OVC003,0.00,VWS V14.01,2013-07-11 05:10:00,
2013-07-11 01:11:00,59.5,56.0,29.90,NE,45,2.0,0.0,88,0.00,,OVC003,0.00,VWS V14.01,2013-07-11 05:11:00,
2013-07-11 01:15:00,59.0,55.5,29.90,NE,45,2.0,0.0,88,0.00,,OVC003,0.00,VWS V14.01,2013-07-11 05:15:00,
2013-07-11 01:16:00,59.3,55.8,29.90,NE,45,2.0,0.0,88,0.00,,OVC003,0.00,VWS V14.01,2013-07-11 05:16:00,
2013-07-11 01:20:00,59.0,55.8,29.90,NE,45,2.0,0.0,89,0.00,,OVC003,0.00,VWS V14.01,2013-07-11 05:20:00,
2013-07-11 01:21:00,59.0,55.5,29.90,NE,45,2.0,0.0,88,0.00,,OVC003,0.00,VWS V14.01,2013-07-11 05:21:00,
2013-07-11 01:25:00,59.0,55.8,29.90,NE,45,2.0,0.0,89,0.00,,OVC003,0.00,VWS V14.01,2013-07-11 05:25:00,
2013-07-11 01:26:00,59.0,55.8,29.90,NE,45,2.0,0.0,89,0.00,,OVC003,0.00,VWS V14.01,2013-07-11 05:26:00,
2013-07-11 01:30:00,59.0,55.8,29.91,NE,45,2.0,0.0,89,0.00,,OVC003,0.00,VWS V14.01,2013-07-11 05:30:00,
2013-07-11 01:31:00,59.0,55.8,29.90,NE,45,2.0,0.0,89,0.00,,OVC003,0.00,VWS V14.01,2013-07-11 05:31:00,
2013-07-11 01:35:00,59.0,55.8,29.91,NE,45,2.0,0.0,89,0.00,,OVC003,0.00,VWS V14.01,2013-07-11 05:35:00,
2013-07-11 01:36:00,59.0,55.8,29.90,NE,45,2.0,0.0,89,0.00,,OVC003,0.00,VWS V14.01,2013-07-11 05:36:00,
2013-07-11 01:40:00,58.8,55.6,29.91,NE,45,2.0,0.0,89,0.00,,OVC003,0.00,VWS V14.01,2013-07-11 05:40:00,
2013-07-11 01:41:00,59.0,55.8,29.91,NE,45,2.0,0.0,89,0.00,,OVC003,0.00,VWS V14.01,2013-07-11 05:41:00,
2013-07-11 01:45:00,58.6,55.4,29.91,NE,45,2.0,0.0,89,0.00,,OVC003,0.00,VWS V14.01,2013-07-11 05:45:00,
2013-07-11 01:46:00,58.9,55.7,29.91,NE,45,2.0,0.0,89,0.00,,OVC003,0.00,VWS V14.01,2013-07-11 05:46:00,
2013-07-11 01:50:00,58.4,55.2,29.91,NE,45,2.0,0.0,89,0.00,,OVC003,0.00,VWS V14.01,2013-07-11 05:50:00,
2013-07-11 01:51:00,58.6,55.4,29.91,NE,45,2.0,0.0,89,0.00,,OVC003,0.00,VWS V14.01,2013-07-11 05:51:00,
2013-07-11 01:55:00,58.3,55.1,29.91,NE,45,2.0,0.0,89,0.00,,OVC003,0.00,VWS V14.01,2013-07-11 05:55:00,
2013-07-11 01:56:00,58.4,55.2,29.91,NE,45,2.0,0.0,89,0.00,,OVC003,0.00,VWS V14.01,2013-07-11 05:56:00,
2013-07-11 02:00:00,58.2,55.0,29.91,NE,45,2.0,0.0,89,0.00,,OVC003,0.00,VWS V14.01,2013-07-11 06:00:00,
2013-07-11 02:01:00,58.3,55.1,29.91,NE,45,2.0,0.0,89,0.00,,OVC003,0.00,VWS V14.01,2013-07-11 06:01:00,
2013-07-11 02:05:00,58.1,55.2,29.91,NE,45,2.0,0.0,90,0.00,,OVC003,0.00,VWS V14.01,2013-07-11 06:05:00,
2013-07-11 02:06:00,58.2,55.0,29.91,NE,45,2.0,0.0,89,0.00,,OVC003,0.00,VWS V14.01,2013-07-11 06:06:00,
2013-07-11 02:10:00,58.0,55.1,29.91,NE,45,2.0,0.0,90,0.00,,OVC003,0.00,VWS V14.01,2013-07-11 06:10:00,
2013-07-11 02:11:00,58.1,55.2,29.91,NE,45,2.0,0.0,90,0.00,,OVC003,0.00,VWS V14.01,2013-07-11 06:11:00,
2013-07-11 02:15:00,57.9,55.0,29.91,NE,45,2.0,2.0,90,0.00,,OVC003,0.00,VWS V14.01,2013-07-11 06:15:00,
2013-07-11 02:16:00,58.0,55.1,29.91,NE,45,2.0,0.0,90,0.00,,OVC003,0.00,VWS V14.01,2013-07-11 06:16:00,
2013-07-11 02:20:00,57.8,54.9,29.91,NE,45,2.0,0.0,90,0.00,,OVC003,0.00,VWS V14.01,2013-07-11 06:20:00,
2013-07-11 02:21:00,57.9,55.0,29.91,NE,45,2.0,2.0,90,0.00,,OVC003,0.00,VWS V14.01,2013-07-11 06:21:00,
2013-07-11 02:25:00,57.8,54.9,29.91,NE,45,2.0,0.0,90,0.00,,OVC003,0.00,VWS V14.01,2013-07-11 06:25:00,
2013-07-11 02:26:00,57.8,54.9,29.91,NE,45,2.0,0.0,90,0.00,,OVC003,0.00,VWS V14.01,2013-07-11 06:26:00,
2013-07-11 02:30:00,57.8,54.9,29.91,NE,45,2.0,0.0,90,0.00,,OVC003,0.00,VWS V14.01,2013-07-11 06:30:00,
2013-07-11 02:32:00,57.8,54.9,29.91,NE,45,2.0,0.0,90,0.00,,OVC003,0.00,VWS V14.01,2013-07-11 06:32:00,
2013-07-11 02:35:00,57.7,54.8,29.91,NE,45,2.0,0.0,90,0.00,,OVC003,0.00,VWS V14.01,2013-07-11 06:35:00,
2013-07-11 02:37:00,57.8,54.9,29.91,NE,45,2.0,0.0,90,0.00,,OVC003,0.00,VWS V14.01,2013-07-11 06:37:00,
2013-07-11 02:40:00,57.7,54.8,29.91,NE,45,2.0,0.0,90,0.00,,OVC003,0.00,VWS V14.01,2013-07-11 06:40:00,
2013-07-11 02:42:00,57.7,54.8,29.91,NE,45,2.0,0.0,90,0.00,,OVC003,0.00,VWS V14.01,2013-07-11 06:42:00,
2013-07-11 02:45:00,57.7,54.8,29.91,NE,45,2.0,0.0,90,0.00,,OVC003,0.00,VWS V14.01,2013-07-11 06:45:00,
2013-07-11 02:47:00,57.7,54.8,29.91,NE,45,2.0,0.0,90,0.00,,OVC003,0.00,VWS V14.01,2013-07-11 06:47:00,
2013-07-11 02:50:00,57.7,54.8,29.91,NE,45,2.0,0.0,90,0.00,,OVC003,0.00,VWS V14.01,2013-07-11 06:50:00,
2013-07-11 02:52:00,57.7,54.8,29.91,NE,45,2.0,0.0,90,0.00,,OVC003,0.00,VWS V14.01,2013-07-11 06:52:00,
2013-07-11 02:55:00,57.6,54.7,29.91,NE,45,2.0,0.0,90,0.00,,OVC003,0.00,VWS V14.01,2013-07-11 06:55:00,
2013-07-11 02:57:00,57.7,54.8,29.91,NE,45,2.0,0.0,90,0.00,,OVC003,0.00,VWS V14.01,2013-07-11 06:57:00,
2013-07-11 03:00:00,57.5,54.6,29.91,NE,45,2.0,0.0,90,0.00,,OVC003,0.00,VWS V14.01,2013-07-11 07:00:00,
2013-07-11 03:02:00,57.6,54.7,29.91,NE,45,2.0,0.0,90,0.00,,OVC003,0.00,VWS V14.01,2013-07-11 07:02:00,
2013-07-11 03:05:00,57.3,54.4,29.91,NE,45,2.0,0.0,90,0.00,,OVC003,0.00,VWS V14.01,2013-07-11 07:05:00,
2013-07-11 03:07:00,57.5,54.6,29.91,NE,45,2.0,0.0,90,0.00,,OVC003,0.00,VWS V14.01,2013-07-11 07:07:00,
2013-07-11 03:10:00,57.2,54.3,29.91,NE,45,2.0,0.0,90,0.00,,OVC003,0.00,VWS V14.01,2013-07-11 07:10:00,
2013-07-11 03:12:00,57.3,54.4,29.91,NE,45,2.0,0.0,90,0.00,,OVC003,0.00,VWS V14.01,2013-07-11 07:12:00,
2013-07-11 03:15:00,57.1,54.2,29.91,NE,45,2.0,0.0,90,0.00,,OVC003,0.00,VWS V14.01,2013-07-11 07:15:00,
2013-07-11 03:17:00,57.2,54.3,29.91,NE,45,2.0,0.0,90,0.00,,OVC003,0.00,VWS V14.01,2013-07-11 07:17:00,
2013-07-11 03:20:00,57.0,54.1,29.91,NE,45,2.0,0.0,90,0.00,,OVC003,0.00,VWS V14.01,2013-07-11 07:20:00,
2013-07-11 03:22:00,57.1,54.2,29.91,NE,45,2.0,0.0,90,0.00,,OVC003,0.00,VWS V14.01,2013-07-11 07:22:00,
2013-07-11 03:25:00,56.9,54.0,29.91,NE,45,2.0,0.0,90,0.00,,OVC003,0.00,VWS V14.01,2013-07-11 07:25:00,
2013-07-11 03:27:00,57.1,54.2,29.91,NE,45,2.0,0.0,90,0.00,,OVC003,0.00,VWS V14.01,2013-07-11 07:27:00,
2013-07-11 03:30:00,56.9,54.0,29.91,NE,45,2.0,0.0,90,0.00,,OVC003,0.00,VWS V14.01,2013-07-11 07:30:00,
2013-07-11 03:32:00,57.0,54.1,29.91,NE,45,2.0,0.0,90,0.00,,OVC003,0.00,VWS V14.01,2013-07-11 07:32:00,
2013-07-11 03:35:00,56.7,54.1,29.91,NE,45,2.0,0.0,91,0.00,,OVC003,0.00,VWS V14.01,2013-07-11 07:35:00,
2013-07-11 03:37:00,56.9,54.0,29.91,NE,45,2.0,0.0,90,0.00,,OVC003,0.00,VWS V14.01,2013-07-11 07:37:00,
2013-07-11 03:40:00,56.7,54.1,29.91,NE,45,2.0,0.0,91,0.00,,OVC003,0.00,VWS V14.01,2013-07-11 07:40:00,
2013-07-11 03:43:00,56.7,54.1,29.91,NE,45,2.0,0.0,91,0.00,,OVC003,0.00,VWS V14.01,2013-07-11 07:43:00,
2013-07-11 03:45:00,56.6,54.0,29.91,NE,45,2.0,0.0,91,0.00,,OVC003,0.00,VWS V14.01,2013-07-11 07:45:00,
2013-07-11 03:49:00,56.6,54.0,29.91,NE,45,2.0,0.0,91,0.00,,OVC003,0.00,VWS V14.01,2013-07-11 07:49:00,
2013-07-11 03:50:00,56.4,53.8,29.91,NE,45,2.0,0.0,91,0.00,,OVC003,0.00,VWS V14.01,2013-07-11 07:50:00,
2013-07-11 03:54:00,56.5,53.9,29.91,NE,45,2.0,0.0,91,0.00,,OVC003,0.00,VWS V14.01,2013-07-11 07:54:00,
2013-07-11 03:55:00,56.4,53.8,29.91,NE,45,2.0,0.0,91,0.00,,OVC003,0.00,VWS V14.01,2013-07-11 07:55:00,
2013-07-11 03:59:00,56.4,53.8,29.91,NE,45,2.0,0.0,91,0.00,,OVC003,0.00,VWS V14.01,2013-07-11 07:59:00,
2013-07-11 04:00:00,56.3,53.7,29.91,NE,45,2.0,0.0,91,0.00,,OVC003,0.00,VWS V14.01,2013-07-11 08:00:00,
2013-07-11 04:04:00,56.4,53.8,29.91,NE,45,2.0,0.0,91,0.00,,OVC003,0.00,VWS V14.01,2013-07-11 08:04:00,
2013-07-11 04:05:00,56.2,53.6,29.91,NE,45,2.0,0.0,91,0.00,,OVC003,0.00,VWS V14.01,2013-07-11 08:05:00,
2013-07-11 04:09:00,56.3,53.7,29.91,NE,45,2.0,0.0,91,0.00,,OVC003,0.00,VWS V14.01,2013-07-11 08:09:00,
2013-07-11 04:10:00,56.1,53.5,29.91,NE,45,2.0,0.0,91,0.00,,OVC003,0.00,VWS V14.01,2013-07-11 08:10:00,
2013-07-11 04:14:00,56.2,53.6,29.91,NE,45,2.0,0.0,91,0.00,,OVC003,0.00,VWS V14.01,2013-07-11 08:14:00,
2013-07-11 04:15:00,56.0,53.4,29.92,NE,45,2.0,0.0,91,0.00,,OVC003,0.00,VWS V14.01,2013-07-11 08:15:00,
2013-07-11 04:19:00,56.1,53.5,29.91,NE,45,2.0,0.0,91,0.00,,OVC003,0.00,VWS V14.01,2013-07-11 08:19:00,
2013-07-11 04:20:00,56.0,53.4,29.92,NE,45,2.0,0.0,91,0.00,,OVC003,0.00,VWS V14.01,2013-07-11 08:20:00,
2013-07-11 04:24:00,56.0,53.4,29.92,NE,45,2.0,0.0,91,0.00,,OVC003,0.00,VWS V14.01,2013-07-11 08:24:00,
2013-07-11 04:25:00,55.9,53.3,29.92,NE,45,2.0,0.0,91,0.00,,OVC003,0.00,VWS V14.01,2013-07-11 08:25:00,
2013-07-11 04:29:00,56.0,53.4,29.92,NE,45,2.0,0.0,91,0.00,,OVC003,0.00,VWS V14.01,2013-07-11 08:29:00,
2013-07-11 04:30:00,55.9,53.6,29.92,NE,45,2.0,0.0,92,0.00,,OVC003,0.00,VWS V14.01,2013-07-11 08:30:00,
2013-07-11 04:34:00,55.9,53.3,29.92,NE,45,2.0,0.0,91,0.00,,OVC003,0.00,VWS V14.01,2013-07-11 08:34:00,
2013-07-11 04:35:00,55.8,53.5,29.92,NE,45,2.0,0.0,92,0.00,,OVC003,0.00,VWS V14.01,2013-07-11 08:35:00,
2013-07-11 04:39:00,55.8,53.5,29.92,NE,45,2.0,0.0,92,0.00,,OVC003,0.00,VWS V14.01,2013-07-11 08:39:00,
2013-07-11 04:40:00,55.8,53.5,29.92,NE,45,2.0,0.0,92,0.00,,OVC003,0.00,VWS V14.01,2013-07-11 08:40:00,
2013-07-11 04:44:00,55.8,53.5,29.92,NE,45,2.0,0.0,92,0.00,,OVC003,0.00,VWS V14.01,2013-07-11 08:44:00,
2013-07-11 04:45:00,55.8,53.5,29.93,NE,45,2.0,0.0,92,0.00,,OVC003,0.00,VWS V14.01,2013-07-11 08:45:00,
2013-07-11 04:49:00,55.8,53.5,29.92,NE,45,2.0,0.0,92,0.00,,OVC003,0.00,VWS V14.01,2013-07-11 08:49:00,
2013-07-11 04:50:00,55.7,53.4,29.93,NE,45,2.0,0.0,92,0.00,,OVC003,0.00,VWS V14.01,2013-07-11 08:50:00,
2013-07-11 04:54:00,55.8,53.5,29.93,NE,45,2.0,0.0,92,0.00,,OVC003,0.00,VWS V14.01,2013-07-11 08:54:00,
2013-07-11 04:55:00,55.7,53.4,29.93,NE,45,2.0,0.0,92,0.00,,OVC003,0.00,VWS V14.01,2013-07-11 08:55:00,
2013-07-11 04:59:00,55.7,53.4,29.93,NE,45,2.0,0.0,92,0.00,,OVC003,0.00,VWS V14.01,2013-07-11 08:59:00,
2013-07-11 05:00:00,55.7,53.4,29.92,NE,45,2.0,0.0,92,0.00,,OVC003,0.00,VWS V14.01,2013-07-11 09:00:00,
2013-07-11 05:04:00,55.7,53.4,29.93,NE,45,2.0,0.0,92,0.00,,OVC003,0.00,VWS V14.01,2013-07-11 09:04:00,
2013-07-11 05:05:00,55.6,53.3,29.92,NE,45,2.0,0.0,92,0.00,,OVC003,0.00,VWS V14.01,2013-07-11 09:05:00,
2013-07-11 05:09:00,55.7,53.4,29.92,NE,45,2.0,0.0,92,0.00,,OVC003,0.00,VWS V14.01,2013-07-11 09:09:00,
2013-07-11 05:10:00,55.6,53.3,29.92,NE,45,2.0,0.0,92,0.00,,OVC003,0.00,VWS V14.01,2013-07-11 09:10:00,
2013-07-11 05:14:00,55.6,53.3,29.92,NE,45,2.0,0.0,92,0.00,,OVC003,0.00,VWS V14.01,2013-07-11 09:14:00,
2013-07-11 05:15:00,55.5,53.2,29.93,NE,45,2.0,0.0,92,0.00,,OVC003,0.00,VWS V14.01,2013-07-11 09:15:00,
2013-07-11 05:19:00,55.5,53.2,29.92,NE,45,2.0,0.0,92,0.00,,OVC003,0.00,VWS V14.01,2013-07-11 09:19:00,
2013-07-11 05:20:00,55.5,53.2,29.93,NE,45,2.0,0.0,92,0.00,,OVC003,0.00,VWS V14.01,2013-07-11 09:20:00,
2013-07-11 05:24:00,55.5,53.2,29.93,NE,45,2.0,0.0,92,0.00,,OVC003,0.00,VWS V14.01,2013-07-11 09:24:00,
2013-07-11 05:25:00,55.5,53.2,29.93,NE,45,2.0,0.0,92,0.00,,OVC003,0.00,VWS V14.01,2013-07-11 09:25:00,
2013-07-11 05:29:00,55.5,53.2,29.93,NE,45,2.0,0.0,92,0.00,,OVC003,0.00,VWS V14.01,2013-07-11 09:29:00,
2013-07-11 05:30:00,55.5,53.2,29.93,NE,45,2.0,0.0,92,0.00,,OVC003,0.00,VWS V14.01,2013-07-11 09:30:00,
2013-07-11 05:34:00,55.5,53.2,29.93,NE,45,2.0,0.0,92,0.00,,OVC003,0.00,VWS V14.01,2013-07-11 09:34:00,
2013-07-11 05:35:00,55.5,53.2,29.93,NE,45,2.0,0.0,92,0.00,,OVC003,0.00,VWS V14.01,2013-07-11 09:35:00,
2013-07-11 05:39:00,55.5,53.2,29.93,NE,45,2.0,0.0,92,0.00,,OVC003,0.00,VWS V14.01,2013-07-11 09:39:00,
2013-07-11 05:40:00,55.5,53.2,29.93,NE,45,2.0,0.0,92,0.00,,OVC003,0.00,VWS V14.01,2013-07-11 09:40:00,
2013-07-11 05:44:00,55.5,53.2,29.93,NE,45,2.0,0.0,92,0.00,,OVC003,0.00,VWS V14.01,2013-07-11 09:44:00,
2013-07-11 05:45:00,55.5,53.2,29.93,NE,45,2.0,0.0,92,0.00,,OVC003,0.00,VWS V14.01,2013-07-11 09:45:00,
2013-07-11 05:49:00,55.5,53.2,29.93,NE,45,2.0,0.0,92,0.00,,OVC003,0.00,VWS V14.01,2013-07-11 09:49:00,
2013-07-11 05:50:00,55.5,53.2,29.93,NE,45,2.0,0.0,92,0.00,,OVC003,0.00,VWS V14.01,2013-07-11 09:50:00,
2013-07-11 05:54:00,55.5,53.2,29.93,NE,45,2.0,0.0,92,0.00,,OVC003,0.00,VWS V14.01,2013-07-11 09:54:00,
2013-07-11 05:55:00,55.4,53.1,29.93,NE,45,2.0,0.0,92,0.00,,OVC003,0.00,VWS V14.01,2013-07-11 09:55:00,
2013-07-11 05:59:00,55.5,53.2,29.93,NE,45,2.0,0.0,92,0.00,,OVC003,0.00,VWS V14.01,2013-07-11 09:59:00,
2013-07-11 06:00:00,55.4,53.1,29.94,NE,45,2.0,0.0,92,0.00,,OVC003,0.00,VWS V14.01,2013-07-11 10:00:00,
2013-07-11 06:04:00,55.4,53.1,29.93,NE,45,2.0,0.0,92,0.00,,OVC003,0.00,VWS V14.01,2013-07-11 10:04:00,
2013-07-11 06:05:00,55.3,53.0,29.94,NE,45,2.0,0.0,92,0.00,,OVC003,0.00,VWS V14.01,2013-07-11 10:05:00,
2013-07-11 06:09:00,55.3,53.0,29.94,NE,45,2.0,0.0,92,0.00,,OVC003,0.00,VWS V14.01,2013-07-11 10:09:00,
2013-07-11 06:10:00,55.4,53.1,29.94,NE,45,2.0,0.0,92,0.00,,OVC003,0.00,VWS V14.01,2013-07-11 10:10:00,
2013-07-11 06:14:00,55.4,53.1,29.94,NE,45,2.0,0.0,92,0.00,,OVC003,0.00,VWS V14.01,2013-07-11 10:14:00,
2013-07-11 06:15:00,55.3,53.0,29.95,NE,45,2.0,0.0,92,0.00,,OVC003,0.00,VWS V14.01,2013-07-11 10:15:00,
2013-07-11 06:19:00,55.3,53.0,29.94,NE,45,2.0,0.0,92,0.00,,OVC003,0.00,VWS V14.01,2013-07-11 10:19:00,
2013-07-11 06:20:00,55.3,53.0,29.95,NE,45,2.0,0.0,92,0.00,,OVC003,0.00,VWS V14.01,2013-07-11 10:20:00,
2013-07-11 06:24:00,55.3,53.0,29.95,NE,45,2.0,0.0,92,0.00,,OVC003,0.00,VWS V14.01,2013-07-11 10:24:00,
2013-07-11 06:25:00,55.3,53.0,29.95,NE,45,2.0,0.0,92,0.00,,OVC003,0.00,VWS V14.01,2013-07-11 10:25:00,
2013-07-11 06:29:00,55.3,53.0,29.95,NE,45,2.0,0.0,92,0.00,,OVC003,0.00,VWS V14.01,2013-07-11 10:29:00,
2013-07-11 06:30:00,55.4,53.1,29.95,NE,45,2.0,0.0,92,0.00,,OVC003,0.00,VWS V14.01,2013-07-11 10:30:00,
2013-07-11 06:34:00,55.3,53.0,29.95,NE,45,2.0,0.0,92,0.00,,OVC003,0.00,VWS V14.01,2013-07-11 10:34:00,
2013-07-11 06:35:00,55.5,53.2,29.95,NE,45,2.0,0.0,92,0.00,,OVC003,0.00,VWS V14.01,2013-07-11 10:35:00,
2013-07-11 06:39:00,55.4,53.1,29.95,NE,45,2.0,0.0,92,0.00,,OVC003,0.00,VWS V14.01,2013-07-11 10:39:00,
2013-07-11 06:40:00,55.5,53.2,29.95,NE,45,2.0,0.0,92,0.00,,OVC003,0.00,VWS V14.01,2013-07-11 10:40:00,
2013-07-11 06:44:00,55.5,53.2,29.95,NE,45,2.0,0.0,92,0.00,,OVC003,0.00,VWS V14.01,2013-07-11 10:44:00,
2013-07-11 06:45:00,55.6,53.3,29.95,NE,45,2.0,0.0,92,0.00,,OVC003,0.00,VWS V14.01,2013-07-11 10:45:00,
2013-07-11 06:49:00,55.6,53.6,29.95,NE,45,2.0,0.0,93,0.00,,OVC003,0.00,VWS V14.01,2013-07-11 10:49:00,
2013-07-11 06:50:00,55.7,53.4,29.95,NE,45,2.0,0.0,92,0.00,,OVC003,0.00,VWS V14.01,2013-07-11 10:50:00,
2013-07-11 06:54:00,55.7,53.4,29.95,NE,45,2.0,0.0,92,0.00,,OVC003,0.00,VWS V14.01,2013-07-11 10:54:00,
2013-07-11 06:55:00,55.8,53.5,29.95,NE,45,2.0,0.0,92,0.00,,OVC003,0.00,VWS V14.01,2013-07-11 10:55:00,
2013-07-11 06:59:00,55.8,53.5,29.95,NE,45,2.0,0.0,92,0.00,,OVC003,0.00,VWS V14.01,2013-07-11 10:59:00,
2013-07-11 07:00:00,55.9,53.9,29.96,NE,45,2.0,0.0,93,0.00,,OVC003,0.00,VWS V14.01,2013-07-11 11:00:00,
2013-07-11 07:04:00,55.8,53.5,29.95,NE,45,2.0,0.0,92,0.00,,OVC003,0.00,VWS V14.01,2013-07-11 11:04:00,
2013-07-11 07:05:00,55.9,53.9,29.96,NE,45,2.0,0.0,93,0.00,,OVC003,0.00,VWS V14.01,2013-07-11 11:05:00,
2013-07-11 07:09:00,55.9,53.9,29.96,NE,45,2.0,0.0,93,0.00,,OVC003,0.00,VWS V14.01,2013-07-11 11:09:00,
2013-07-11 07:10:00,56.0,54.0,29.96,NE,45,2.0,0.0,93,0.00,,OVC003,0.00,VWS V14.01,2013-07-11 11:10:00,
2013-07-11 07:15:00,56.0,54.0,29.96,NE,45,2.0,0.0,93,0.00,,OVC003,0.00,VWS V14.01,2013-07-11 11:15:00,
2013-07-11 07:20:00,56.1,54.1,29.96,NE,45,2.0,0.0,93,0.00,,OVC003,0.00,VWS V14.01,2013-07-11 11:20:00,
2013-07-11 07:25:00,56.3,54.3,29.96,NE,45,2.0,0.0,93,0.00,,OVC003,0.00,VWS V14.01,2013-07-11 11:25:00,
2013-07-11 07:30:00,56.5,54.5,29.96,NE,45,2.0,2.0,93,0.00,,OVC003,0.00,VWS V14.01,2013-07-11 11:30:00,
2013-07-11 07:35:00,56.7,54.7,29.96,NE,45,2.0,0.0,93,0.00,,OVC003,0.00,VWS V14.01,2013-07-11 11:35:00,
2013-07-11 07:40:00,56.9,54.9,29.96,NE,45,2.0,0.0,93,0.00,,OVC003,0.00,VWS V14.01,2013-07-11 11:40:00,
2013-07-11 07:45:00,57.2,55.2,29.96,NE,45,2.0,0.0,93,0.00,,OVC003,0.00,VWS V14.01,2013-07-11 11:45:00,
2013-07-11 07:50:00,57.6,55.6,29.96,NE,45,2.0,2.0,93,0.00,,OVC003,0.00,VWS V14.01,2013-07-11 11:50:00,
2013-07-11 07:55:00,58.0,56.0,29.96,NE,45,2.0,2.0,93,0.00,,OVC003,0.00,VWS V14.01,2013-07-11 11:55:00,
2013-07-11 08:00:00,58.3,56.3,29.96,NE,45,2.0,2.0,93,0.00,,OVC003,0.00,VWS V14.01,2013-07-11 12:00:00,
2013-07-11 08:05:00,58.5,56.5,29.96,NE,45,2.0,0.0,93,0.00,,OVC003,0.00,VWS V14.01,2013-07-11 12:05:00,
2013-07-11 08:10:00,58.9,56.9,29.96,NE,45,2.0,0.0,93,0.00,,OVC003,0.00,VWS V14.01,2013-07-11 12:10:00,
2013-07-11 08:15:00,59.0,56.7,29.96,NE,45,2.0,2.0,92,0.00,,OVC003,0.00,VWS V14.01,2013-07-11 12:15:00,
2013-07-11 08:20:00,59.1,56.8,29.96,NE,45,2.0,2.0,92,0.00,,OVC003,0.00,VWS V14.01,2013-07-11 12:20:00,
2013-07-11 08:25:00,59.6,57.3,29.96,NE,45,2.0,0.0,92,0.00,,OVC003,0.00,VWS V14.01,2013-07-11 12:25:00,
2013-07-11 08:30:00,60.0,57.7,29.96,NE,45,2.0,0.0,92,0.00,,OVC003,0.00,VWS V14.01,2013-07-11 12:30:00,
2013-07-11 08:35:00,60.3,57.7,29.96,NE,45,2.0,0.0,91,0.00,,OVC003,0.00,VWS V14.01,2013-07-11 12:35:00,
2013-07-11 08:40:00,60.6,58.0,29.97,NE,45,2.0,0.0,91,0.00,,OVC003,0.00,VWS V14.01,2013-07-11 12:40:00,
2013-07-11 08:45:00,61.0,58.4,29.97,NE,45,2.0,0.0,91,0.00,,OVC003,0.00,VWS V14.01,2013-07-11 12:45:00,
2013-07-11 08:50:00,61.4,58.5,29.97,NE,45,2.0,0.0,90,0.00,,OVC003,0.00,VWS V14.01,2013-07-11 12:50:00,
2013-07-11 08:55:00,62.0,58.7,29.97,NE,45,2.0,0.0,89,0.00,,OVC003,0.00,VWS V14.01,2013-07-11 12:55:00,
2013-07-11 09:00:00,63.3,59.0,29.98,NE,45,2.0,0.0,86,0.00,,OVC003,0.00,VWS V14.01,2013-07-11 13:00:00,
2013-07-11 09:01:00,62.6,59.0,29.97,NE,45,2.0,0.0,88,0.00,,OVC003,0.00,VWS V14.01,2013-07-11 13:01:00,
2013-07-11 09:05:00,63.8,59.2,29.98,NE,45,3.0,3.0,85,0.00,,OVC003,0.00,VWS V14.01,2013-07-11 13:05:00,
2013-07-11 09:07:00,63.2,59.0,29.98,NE,45,2.0,0.0,86,0.00,,OVC003,0.00,VWS V14.01,2013-07-11 13:07:00,
2013-07-11 09:10:00,64.5,59.2,29.98,NE,45,2.0,2.0,83,0.00,,OVC003,0.00,VWS V14.01,2013-07-11 13:10:00,
2013-07-11 09:12:00,63.7,59.1,29.98,NE,45,2.0,2.0,85,0.00,,OVC003,0.00,VWS V14.01,2013-07-11 13:12:00,
2013-07-11 09:15:00,65.0,59.0,29.98,NE,45,3.0,3.0,81,0.00,,OVC003,0.00,VWS V14.01,2013-07-11 13:15:00,
2013-07-11 09:17:00,64.4,59.1,29.98,NE,45,2.0,2.0,83,0.00,,OVC003,0.00,VWS V14.01,2013-07-11 13:17:00,
2013-07-11 09:20:00,65.5,59.2,29.98,NE,45,2.0,2.0,80,0.00,,OVC003,0.00,VWS V14.01,2013-07-11 13:20:00,
2013-07-11 09:22:00,65.0,59.0,29.98,NE,45,2.0,2.0,81,0.00,,OVC003,0.00,VWS V14.01,2013-07-11 13:22:00,
2013-07-11 09:25:00,65.8,59.1,29.98,NE,45,2.0,2.0,79,0.00,,OVC003,0.00,VWS V14.01,2013-07-11 13:25:00,
2013-07-11 09:27:00,65.5,59.2,29.98,NE,45,2.0,2.0,80,0.00,,OVC003,0.00,VWS V14.01,2013-07-11 13:27:00,
2013-07-11 09:30:00,66.2,59.5,29.98,NE,45,2.0,2.0,79,0.00,,OVC003,0.00,VWS V14.01,2013-07-11 13:30:00,
2013-07-11 09:32:00,65.8,59.1,29.98,NE,45,2.0,2.0,79,0.00,,OVC003,0.00,VWS V14.01,2013-07-11 13:32:00,
2013-07-11 09:35:00,66.5,59.4,29.98,NE,45,2.0,2.0,78,0.00,,OVC003,0.00,VWS V14.01,2013-07-11 13:35:00,
2013-07-11 09:38:00,66.2,59.5,29.98,NE,45,2.0,2.0,79,0.00,,OVC003,0.00,VWS V14.01,2013-07-11 13:38:00,
2013-07-11 09:40:00,66.8,59.4,29.98,NE,45,2.0,2.0,77,0.00,,OVC003,0.00,VWS V14.01,2013-07-11 13:40:00,
2013-07-11 09:43:00,66.5,59.4,29.98,NE,45,2.0,2.0,78,0.00,,OVC003,0.00,VWS V14.01,2013-07-11 13:43:00,
2013-07-11 09:45:00,67.0,58.8,29.98,NE,45,3.0,3.0,75,0.00,,OVC003,0.00,VWS V14.01,2013-07-11 13:45:00,
2013-07-11 09:48:00,66.8,59.4,29.98,NE,45,2.0,2.0,77,0.00,,OVC003,0.00,VWS V14.01,2013-07-11 13:48:00,
2013-07-11 09:50:00,67.3,58.7,29.98,NE,45,4.0,4.0,74,0.00,,OVC003,0.00,VWS V14.01,2013-07-11 13:50:00,
2013-07-11 09:53:00,67.0,58.8,29.98,NE,45,3.0,3.0,75,0.00,,OVC003,0.00,VWS V14.01,2013-07-11 13:53:00,
2013-07-11 09:55:00,67.4,58.8,29.98,NE,45,2.0,2.0,74,0.00,,OVC003,0.00,VWS V14.01,2013-07-11 13:55:00,
2013-07-11 09:58:00,67.3,58.7,29.98,NE,45,2.0,2.0,74,0.00,,OVC003,0.00,VWS V14.01,2013-07-11 13:58:00,
2013-07-11 10:00:00,67.6,58.7,29.98,NE,45,2.0,2.0,73,0.00,,OVC003,0.00,VWS V14.01,2013-07-11 14:00:00,
2013-07-11 10:03:00,67.5,58.9,29.98,NE,45,2.0,2.0,74,0.00,,OVC003,0.00,VWS V14.01,2013-07-11 14:03:00,
2013-07-11 10:05:00,67.9,59.3,29.98,NE,45,3.0,3.0,74,0.00,,OVC003,0.00,VWS V14.01,2013-07-11 14:05:00,
2013-07-11 10:10:00,67.7,58.7,29.98,NE,45,2.0,2.0,73,0.00,,OVC003,0.00,VWS V14.01,2013-07-11 14:10:00,
2013-07-11 10:15:00,68.1,59.1,29.98,NE,45,2.0,2.0,73,0.00,,OVC003,0.00,VWS V14.01,2013-07-11 14:15:00,
2013-07-11 10:20:00,68.5,59.1,29.98,NE,45,2.0,2.0,72,0.00,,OVC003,0.00,VWS V14.01,2013-07-11 14:20:00,
2013-07-11 10:25:00,68.7,58.9,29.98,NE,45,2.0,2.0,71,0.00,,OVC003,0.00,VWS V14.01,2013-07-11 14:25:00,
2013-07-11 10:30:00,68.9,59.1,29.98,NE,44,2.0,0.0,71,0.00,,OVC003,0.00,VWS V14.01,2013-07-11 14:30:00,
2013-07-11 10:35:00,69.2,59.4,29.98,NE,45,2.0,0.0,71,0.00,,OVC003,0.00,VWS V14.01,2013-07-11 14:35:00,
2013-07-11 10:40:00,69.2,59.0,29.98,NE,39,3.0,3.0,70,0.00,,OVC003,0.00,VWS V14.01,2013-07-11 14:40:00,
2013-07-11 10:45:00,69.6,58.6,29.98,NE,39,2.0,2.0,68,0.00,,OVC003,0.00,VWS V14.01,2013-07-11 14:45:00,
2013-07-11 10:46:00,69.4,58.8,29.98,NE,39,2.0,2.0,69,0.00,,OVC003,0.00,VWS V14.01,2013-07-11 14:46:00,
2013-07-11 10:50:00,69.8,58.8,29.98,West,271,2.0,3.0,68,0.00,,OVC003,0.00,VWS V14.01,2013-07-11 14:50:00,
2013-07-11 10:51:00,69.6,59.0,29.98,NE,39,2.0,2.0,69,0.00,,OVC003,0.00,VWS V14.01,2013-07-11 14:51:00,
2013-07-11 10:55:00,69.9,59.3,29.98,West,271,2.0,2.0,69,0.00,,OVC003,0.00,VWS V14.01,2013-07-11 14:55:00,
2013-07-11 10:56:00,69.8,59.2,29.98,West,271,4.0,4.0,69,0.00,,OVC003,0.00,VWS V14.01,2013-07-11 14:56:00,
2013-07-11 11:00:00,70.0,59.4,29.98,NW,322,2.0,3.0,69,0.00,,OVC003,0.00,VWS V14.01,2013-07-11 15:00:00,
2013-07-11 11:01:00,69.9,59.3,29.98,West,271,2.0,2.0,69,0.00,,OVC003,0.00,VWS V14.01,2013-07-11 15:01:00,
2013-07-11 11:05:00,70.1,59.9,29.98,NW,322,2.0,2.0,70,0.00,,OVC003,0.00,VWS V14.01,2013-07-11 15:05:00,
2013-07-11 11:06:00,70.0,59.4,29.98,NW,317,2.0,3.0,69,0.00,,OVC003,0.00,VWS V14.01,2013-07-11 15:06:00,
2013-07-11 11:10:00,70.2,60.0,29.98,NW,317,2.0,2.0,70,0.00,,OVC003,0.00,VWS V14.01,2013-07-11 15:10:00,
2013-07-11 11:11:00,70.1,59.9,29.98,NW,317,2.0,2.0,70,0.00,,OVC003,0.00,VWS V14.01,2013-07-11 15:11:00,
2013-07-11 11:15:00,70.4,59.8,29.98,NNW,330,2.0,3.0,69,0.00,,OVC003,0.00,VWS V14.01,2013-07-11 15:15:00,
2013-07-11 11:17:00,70.2,59.6,29.98,NW,322,2.0,2.0,69,0.00,,OVC003,0.00,VWS V14.01,2013-07-11 15:17:00,
2013-07-11 11:20:00,70.5,59.4,29.98,NNW,330,2.0,2.0,68,0.00,,OVC003,0.00,VWS V14.01,2013-07-11 15:20:00,
2013-07-11 11:22:00,70.4,60.6,29.98,NW,326,2.0,3.0,71,0.00,,OVC003,0.00,VWS V14.01,2013-07-11 15:22:00,
2013-07-11 11:25:00,70.7,59.2,29.98,NNW,330,2.0,2.0,67,0.00,,OVC003,0.00,VWS V14.01,2013-07-11 15:25:00,
2013-07-11 11:27:00,70.5,59.4,29.98,NNW,330,2.0,2.0,68,0.00,,OVC003,0.00,VWS V14.01,2013-07-11 15:27:00,
2013-07-11 11:30:00,71.0,59.5,29.98,NNW,330,2.0,2.0,67,0.00,,OVC003,0.00,VWS V14.01,2013-07-11 15:30:00,
2013-07-11 11:32:00,70.7,59.2,29.98,NNW,330,2.0,2.0,67,0.00,,OVC003,0.00,VWS V14.01,2013-07-11 15:32:00,
2013-07-11 11:35:00,71.3,59.4,29.98,ENE,68,2.0,3.0,66,0.00,,OVC003,0.00,VWS V14.01,2013-07-11 15:35:00,
2013-07-11 11:38:00,71.0,59.5,29.98,NNW,330,2.0,2.0,67,0.00,,OVC003,0.00,VWS V14.01,2013-07-11 15:38:00,
2013-07-11 11:40:00,71.4,59.5,29.98,ENE,70,2.0,2.0,66,0.00,,OVC003,0.00,VWS V14.01,2013-07-11 15:40:00,
2013-07-11 11:43:00,71.3,59.4,29.98,ENE,69,2.0,0.0,66,0.00,,OVC003,0.00,VWS V14.01,2013-07-11 15:43:00,
2013-07-11 11:45:00,71.6,58.8,29.98,ENE,70,2.0,2.0,64,0.00,,OVC003,0.00,VWS V14.01,2013-07-11 15:45:00,
2013-07-11 11:48:00,71.4,59.5,29.98,ENE,70,2.0,0.0,66,0.00,,OVC003,0.00,VWS V14.01,2013-07-11 15:48:00,
2013-07-11 11:50:00,71.7,59.3,29.98,ENE,71,2.0,2.0,65,0.00,,OVC003,0.00,VWS V14.01,2013-07-11 15:50:00,
2013-07-11 11:53:00,71.5,59.1,29.98,ENE,70,2.0,0.0,65,0.00,,OVC003,0.00,VWS V14.01,2013-07-11 15:53:00,
2013-07-11 11:55:00,72.0,60.0,29.98,ENE,71,2.0,2.0,66,0.00,,OVC003,0.00,VWS V14.01,2013-07-11 15:55:00,
2013-07-11 12:00:00,71.8,59.4,29.98,ENE,71,2.0,0.0,65,0.00,,OVC003,0.00,VWS V14.01,2013-07-11 16:00:00,
2013-07-11 12:05:00,72.1,58.4,29.98,West,280,2.0,2.0,62,0.00,,OVC003,0.00,VWS V14.01,2013-07-11 16:05:00,
2013-07-11 12:06:00,72.0,58.7,29.98,South,180,4.0,4.0,63,0.00,,OVC003,0.00,VWS V14.01,2013-07-11 16:06:00,
2013-07-11 12:10:00,72.1,59.3,29.98,West,280,2.0,2.0,64,0.00,,OVC003,0.00,VWS V14.01,2013-07-11 16:10:00,
2013-07-11 12:11:00,72.1,58.8,29.98,West,280,2.0,0.0,63,0.00,,OVC003,0.00,VWS V14.01,2013-07-11 16:11:00,
2013-07-11 12:15:00,72.1,58.4,29.98,WNW,289,2.0,3.0,62,0.00,,OVC003,0.00,VWS V14.01,2013-07-11 16:15:00,
2013-07-11 12:16:00,72.1,59.3,29.98,West,280,2.0,0.0,64,0.00,,OVC003,0.00,VWS V14.01,2013-07-11 16:16:00,
2013-07-11 12:20:00,72.0,58.3,29.98,SW,227,2.0,3.0,62,0.00,,OVC003,0.00,VWS V14.01,2013-07-11 16:20:00,
2013-07-11 12:21:00,72.1,58.4,29.98,WNW,289,2.0,3.0,62,0.00,,OVC003,0.00,VWS V14.01,2013-07-11 16:21:00,
2013-07-11 12:25:00,72.1,58.4,29.98,SW,226,2.0,2.0,62,0.00,,OVC003,0.00,VWS V14.01,2013-07-11 16:25:00,
2013-07-11 12:26:00,72.0,59.2,29.98,SW,226,3.0,3.0,64,0.00,,OVC003,0.00,VWS V14.01,2013-07-11 16:26:00,
2013-07-11 12:30:00,72.1,58.8,29.98,SW,227,3.0,3.0,63,0.00,,OVC003,0.00,VWS V14.01,2013-07-11 16:30:00,
2013-07-11 12:31:00,72.1,57.9,29.98,SW,227,3.0,3.0,61,0.00,,OVC003,0.00,VWS V14.01,2013-07-11 16:31:00,
2013-07-11 12:35:00,72.3,59.0,29.98,SW,227,2.0,2.0,63,0.00,,OVC003,0.00,VWS V14.01,2013-07-11 16:35:00,
2013-07-11 12:36:00,72.1,59.3,29.98,SW,227,3.0,3.0,64,0.00,,OVC003,0.00,VWS V14.01,2013-07-11 16:36:00,
2013-07-11 12:40:00,72.7,58.5,29.98,SW,227,2.0,3.0,61,0.00,,OVC003,0.00,VWS V14.01,2013-07-11 16:40:00,
2013-07-11 12:42:00,72.2,58.9,29.98,SW,227,3.0,3.0,63,0.00,,OVC003,0.00,VWS V14.01,2013-07-11 16:42:00,
2013-07-11 12:45:00,72.8,58.6,29.98,SW,227,2.0,2.0,61,0.00,,OVC003,0.00,VWS V14.01,2013-07-11 16:45:00,
2013-07-11 12:48:00,72.7,58.5,29.98,SW,227,2.0,3.0,61,0.00,,OVC003,0.00,VWS V14.01,2013-07-11 16:48:00,
2013-07-11 12:50:00,73.0,58.8,29.98,SW,227,4.0,4.0,61,0.00,,OVC003,0.00,VWS V14.01,2013-07-11 16:50:00,
2013-07-11 12:53:00,72.8,58.6,29.98,SW,227,2.0,2.0,61,0.00,,OVC003,0.00,VWS V14.01,2013-07-11 16:53:00,
2013-07-11 12:55:00,72.9,58.7,29.98,NE,55,2.0,3.0,61,0.00,,OVC003,0.00,VWS V14.01,2013-07-11 16:55:00,
2013-07-11 12:58:00,73.0,59.7,29.98,SW,226,2.0,2.0,63,0.00,,OVC003,0.00,VWS V14.01,2013-07-11 16:58:00,
2013-07-11 13:00:00,72.7,58.9,29.98,NE,55,2.0,2.0,62,0.00,,OVC003,0.00,VWS V14.01,2013-07-11 17:00:00,
2013-07-11 13:03:00,72.8,58.6,29.98,NE,55,2.0,0.0,61,0.00,,OVC003,0.00,VWS V14.01,2013-07-11 17:03:00,
2013-07-11 13:05:00,72.7,58.9,29.98,NE,53,2.0,2.0,62,0.00,,OVC003,0.00,VWS V14.01,2013-07-11 17:05:00,
2013-07-11 13:08:00,72.7,58.9,29.98,NE,55,3.0,3.0,62,0.00,,OVC003,0.00,VWS V14.01,2013-07-11 17:08:00,
2013-07-11 13:10:00,73.1,58.4,29.98,ENE,62,5.0,5.0,60,0.00,,OVC003,0.00,VWS V14.01,2013-07-11 17:10:00,
2013-07-11 13:15:00,72.8,59.5,29.98,NE,53,4.0,4.0,63,0.00,,OVC003,0.00,VWS V14.01,2013-07-11 17:15:00,
2013-07-11 13:20:00,72.9,57.3,29.98,NE,45,2.0,4.0,58,0.00,,OVC003,0.00,VWS V14.01,2013-07-11 17:20:00,
2013-07-11 13:22:00,73.3,57.2,29.98,NE,43,4.0,4.0,57,0.00,,OVC003,0.00,VWS V14.01,2013-07-11 17:22:00,
2013-07-11 13:25:00,72.6,57.0,29.98,NE,45,3.0,3.0,58,0.00,,OVC003,0.00,VWS V14.01,2013-07-11 17:25:00,
2013-07-11 13:27:00,73.0,57.4,29.98,NE,44,3.0,4.0,58,0.00,,OVC003,0.00,VWS V14.01,2013-07-11 17:27:00,
2013-07-11 13:30:00,72.3,57.7,29.98,NE,45,2.0,2.0,60,0.00,,OVC003,0.00,VWS V14.01,2013-07-11 17:30:00,
2013-07-11 13:32:00,72.6,57.0,29.98,NE,45,2.0,3.0,58,0.00,,OVC003,0.00,VWS V14.01,2013-07-11 17:32:00,
2013-07-11 13:35:00,72.0,57.8,29.98,NE,45,2.0,2.0,61,0.00,,OVC003,0.00,VWS V14.01,2013-07-11 17:35:00,
2013-07-11 13:37:00,72.3,57.2,29.98,NE,45,3.0,3.0,59,0.00,,OVC003,0.00,VWS V14.01,2013-07-11 17:37:00,
2013-07-11 13:40:00,71.8,58.5,29.98,NE,45,2.0,0.0,63,0.00,,OVC003,0.00,VWS V14.01,2013-07-11 17:40:00,
2013-07-11 13:42:00,72.1,57.9,29.98,NE,45,2.0,2.0,61,0.00,,OVC003,0.00,VWS V14.01,2013-07-11 17:42:00,
2013-07-11 13:45:00,71.6,57.9,29.99,NE,45,2.0,2.0,62,0.00,,OVC003,0.00,VWS V14.01,2013-07-11 17:45:00,
2013-07-11 13:48:00,71.8,58.5,29.98,NE,45,2.0,0.0,63,0.00,,OVC003,0.00,VWS V14.01,2013-07-11 17:48:00,
2013-07-11 13:50:00,71.4,58.6,29.99,NE,45,2.0,0.0,64,0.00,,OVC003,0.00,VWS V14.01,2013-07-11 17:50:00,
2013-07-11 13:53:00,71.5,57.8,29.99,NE,45,2.0,0.0,62,0.00,,OVC003,0.00,VWS V14.01,2013-07-11 17:53:00,
2013-07-11 13:55:00,71.7,59.8,29.99,NE,44,2.0,2.0,66,0.00,,OVC003,0.00,VWS V14.01,2013-07-11 17:55:00,
2013-07-11 13:58:00,71.5,58.7,29.99,NE,45,2.0,0.0,64,0.00,,OVC003,0.00,VWS V14.01,2013-07-11 17:58:00,
2013-07-11 14:00:00,72.1,58.4,29.98,NE,44,2.0,2.0,62,0.00,,OVC003,0.00,VWS V14.01,2013-07-11 18:00:00,
2013-07-11 14:03:00,71.8,59.8,29.99,NE,45,3.0,3.0,66,0.00,,OVC003,0.00,VWS V14.01,2013-07-11 18:03:00,
2013-07-11 14:05:00,72.5,58.3,29.98,NE,45,3.0,3.0,61,0.00,,OVC003,0.00,VWS V14.01,2013-07-11 18:05:00,
2013-07-11 14:08:00,72.1,58.8,29.98,NE,45,2.0,2.0,63,0.00,,OVC003,0.00,VWS V14.01,2013-07-11 18:08:00,
2013-07-11 14:10:00,72.9,59.1,29.98,NE,45,2.0,3.0,62,0.00,,OVC003,0.00,VWS V14.01,2013-07-11 18:10:00,
2013-07-11 14:15:00,72.6,57.9,29.98,NE,44,3.0,3.0,60,0.00,,OVC003,0.00,VWS V14.01,2013-07-11 18:15:00,
2013-07-11 14:20:00,73.0,58.8,29.98,NE,45,2.0,0.0,61,0.00,,OVC003,0.00,VWS V14.01,2013-07-11 18:20:00,
2013-07-11 14:25:00,73.2,59.0,29.98,NE,45,2.0,0.0,61,0.00,,OVC003,0.00,VWS V14.01,2013-07-11 18:25:00,
2013-07-11 14:30:00,73.8,57.6,29.98,NE,51,4.0,4.0,57,0.00,,OVC003,0.00,VWS V14.01,2013-07-11 18:30:00,
2013-07-11 14:31:00,73.4,58.7,29.98,NE,45,2.0,2.0,60,0.00,,OVC003,0.00,VWS V14.01,2013-07-11 18:31:00,
2013-07-11 14:35:00,74.3,59.5,29.98,WSW,253,2.0,5.0,60,0.00,,OVC003,0.00,VWS V14.01,2013-07-11 18:35:00,
2013-07-11 14:36:00,73.7,58.0,29.98,West,260,3.0,4.0,58,0.00,,OVC003,0.00,VWS V14.01,2013-07-11 18:36:00,
2013-07-11 14:40:00,74.4,57.2,29.98,SSW,195,3.0,3.0,55,0.00,,OVC003,0.00,VWS V14.01,2013-07-11 18:40:00,
2013-07-11 14:41:00,74.2,59.0,29.98,WSW,248,5.0,5.0,59,0.00,,OVC003,0.00,VWS V14.01,2013-07-11 18:41:00,
2013-07-11 14:45:00,74.2,57.5,29.98,SSW,196,2.0,2.0,56,0.00,,OVC003,0.00,VWS V14.01,2013-07-11 18:45:00,
2013-07-11 14:47:00,74.4,57.7,29.98,WSW,253,3.0,3.0,56,0.00,,OVC003,0.00,VWS V14.01,2013-07-11 18:47:00,
2013-07-11 14:50:00,74.0,58.3,29.98,SSW,195,3.0,3.0,58,0.00,,OVC003,0.00,VWS V14.01,2013-07-11 18:50:00,
2013-07-11 14:53:00,74.2,57.5,29.98,SSW,196,2.0,2.0,56,0.00,,OVC003,0.00,VWS V14.01,2013-07-11 18:53:00,
2013-07-11 14:55:00,73.8,58.1,29.98,SSW,196,2.0,2.0,58,0.00,,OVC003,0.00,VWS V14.01,2013-07-11 18:55:00,
2013-07-11 14:58:00,74.0,58.3,29.98,SSW,195,3.0,3.0,58,0.00,,OVC003,0.00,VWS V14.01,2013-07-11 18:58:00,
2013-07-11 15:00:00,74.0,60.2,29.98,SSW,196,2.0,2.0,62,0.00,,OVC003,0.00,VWS V14.01,2013-07-11 19:00:00,
2013-07-11 15:03:00,73.8,58.1,29.98,SSW,196,2.0,0.0,58,0.00,,OVC003,0.00,VWS V14.01,2013-07-11 19:03:00,
2013-07-11 15:05:00,74.6,59.8,29.98,SSW,196,2.0,2.0,60,0.00,,OVC003,0.00,VWS V14.01,2013-07-11 19:05:00,
2013-07-11 15:08:00,74.0,60.2,29.98,SSW,196,2.0,0.0,62,0.00,,OVC003,0.00,VWS V14.01,2013-07-11 19:08:00,
2013-07-11 15:10:00,75.1,59.8,29.98,SSW,196,2.0,2.0,59,0.00,,OVC003,0.00,VWS V14.01,2013-07-11 19:10:00,
2013-07-11 15:14:00,74.7,59.4,29.98,SSW,195,2.0,2.0,59,0.00,,OVC003,0.00,VWS V14.01,2013-07-11 19:14:00,
2013-07-11 15:15:00,75.3,58.0,29.98,SSW,195,2.0,2.0,55,0.00,,OVC003,0.00,VWS V14.01,2013-07-11 19:15:00,
2013-07-11 15:19:00,75.3,58.5,29.98,SSW,196,4.0,4.0,56,0.00,,OVC003,0.00,VWS V14.01,2013-07-11 19:19:00,
2013-07-11 15:20:00,75.2,59.4,29.98,SSW,196,2.0,2.0,58,0.00,,OVC003,0.00,VWS V14.01,2013-07-11 19:20:00,
2013-07-11 15:25:00,75.2,57.9,29.98,SSW,196,2.0,0.0,55,0.00,,OVC003,0.00,VWS V14.01,2013-07-11 19:25:00,
2013-07-11 15:30:00,75.3,59.0,29.98,SSW,195,2.0,2.0,57,0.00,,OVC003,0.00,VWS V14.01,2013-07-11 19:30:00,
2013-07-11 15:35:00,75.4,59.1,29.98,SSW,196,2.0,2.0,57,0.00,,OVC003,0.00,VWS V14.01,2013-07-11 19:35:00,
2013-07-11 15:40:00,75.4,59.6,29.98,South,184,2.0,2.0,58,0.00,,OVC003,0.00,VWS V14.01,2013-07-11 19:40:00,
2013-07-11 15:45:00,75.4,60.1,29.98,South,183,3.0,3.0,59,0.00,,OVC003,0.00,VWS V14.01,2013-07-11 19:45:00,
2013-07-11 15:50:00,75.3,60.0,29.98,South,184,2.0,2.0,59,0.00,,OVC003,0.00,VWS V14.01,2013-07-11 19:50:00,
2013-07-11 15:55:00,75.2,59.9,29.98,South,184,2.0,0.0,59,0.00,,OVC003,0.00,VWS V14.01,2013-07-11 19:55:00,
2013-07-11 16:00:00,75.6,60.3,29.98,SSW,209,4.0,4.0,59,0.00,,OVC003,0.00,VWS V14.01,2013-07-11 20:00:00,
2013-07-11 16:05:00,75.6,58.8,29.98,SW,236,3.0,3.0,56,0.00,,OVC003,0.00,VWS V14.01,2013-07-11 20:05:00,
2013-07-11 16:10:00,75.8,59.5,29.98,SW,216,2.0,0.0,57,0.00,,OVC003,0.00,VWS V14.01,2013-07-11 20:10:00,
2013-07-11 16:15:00,75.7,59.4,29.98,SW,216,3.0,3.0,57,0.00,,OVC003,0.00,VWS V14.01,2013-07-11 20:15:00,
2013-07-11 16:20:00,75.9,60.1,29.98,SW,216,2.0,0.0,58,0.00,,OVC003,0.00,VWS V14.01,2013-07-11 20:20:00,
2013-07-11 16:25:00,76.1,58.8,29.98,SW,216,2.0,2.0,55,0.00,,OVC003,0.00,VWS V14.01,2013-07-11 20:25:00,
2013-07-11 16:30:00,76.4,60.1,29.98,SSW,207,2.0,2.0,57,0.00,,OVC003,0.00,VWS V14.01,2013-07-11 20:30:00,
2013-07-11 16:35:00,77.4,59.5,29.98,SSW,210,3.0,3.0,54,0.00,,OVC003,0.00,VWS V14.01,2013-07-11 20:35:00,
2013-07-11 16:36:00,76.8,59.9,29.98,SSW,207,2.0,2.0,56,0.00,,OVC003,0.00,VWS V14.01,2013-07-11 20:36:00,
2013-07-11 16:40:00,77.4,60.5,29.98,SSW,210,2.0,2.0,56,0.00,,OVC003,0.00,VWS V14.01,2013-07-11 20:40:00,
2013-07-11 16:41:00,77.3,58.3,29.98,SSW,210,2.0,3.0,52,0.00,,OVC003,0.00,VWS V14.01,2013-07-11 20:41:00,
2013-07-11 16:45:00,77.5,61.6,29.98,SSW,210,2.0,2.0,58,0.00,,OVC003,0.00,VWS V14.01,2013-07-11 20:45:00,
2013-07-11 16:46:00,77.4,61.5,29.98,SSW,210,3.0,3.0,58,0.00,,OVC003,0.00,VWS V14.01,2013-07-11 20:46:00,
2013-07-11 16:50:00,77.4,61.0,29.98,SSW,210,2.0,2.0,57,0.00,,OVC003,0.00,VWS V14.01,2013-07-11 20:50:00,
2013-07-11 16:51:00,77.4,61.0,29.98,SSW,210,2.0,2.0,57,0.00,,OVC003,0.00,VWS V14.01,2013-07-11 20:51:00,
2013-07-11 16:55:00,77.2,61.3,29.98,SSW,210,2.0,2.0,58,0.00,,OVC003,0.00,VWS V14.01,2013-07-11 20:55:00,
2013-07-11 16:56:00,77.5,61.6,29.98,SSW,210,2.0,2.0,58,0.00,,OVC003,0.00,VWS V14.01,2013-07-11 20:56:00,
2013-07-11 17:00:00,76.8,61.4,29.98,SSW,210,2.0,0.0,59,0.00,,OVC003,0.00,VWS V14.01,2013-07-11 21:00:00,
2013-07-11 17:01:00,77.3,61.4,29.98,SSW,210,2.0,2.0,58,0.00,,OVC003,0.00,VWS V14.01,2013-07-11 21:01:00,
2013-07-11 17:05:00,76.6,61.7,29.98,SSW,210,2.0,0.0,60,0.00,,OVC003,0.00,VWS V14.01,2013-07-11 21:05:00,
2013-07-11 17:06:00,77.0,61.6,29.98,SSW,210,2.0,0.0,59,0.00,,OVC003,0.00,VWS V14.01,2013-07-11 21:06:00,
2013-07-11 17:10:00,76.6,61.7,29.98,SSW,210,3.0,3.0,60,0.00,,OVC003,0.00,VWS V14.01,2013-07-11 21:10:00,
2013-07-11 17:12:00,76.6,62.6,29.98,SSW,210,2.0,0.0,62,0.00,,OVC003,0.00,VWS V14.01,2013-07-11 21:12:00,
2013-07-11 17:15:00,76.4,62.0,29.98,SSW,210,2.0,2.0,61,0.00,,OVC003,0.00,VWS V14.01,2013-07-11 21:15:00,
2013-07-11 17:18:00,76.6,61.7,29.98,SSW,210,4.0,4.0,60,0.00,,OVC003,0.00,VWS V14.01,2013-07-11 21:18:00,
2013-07-11 17:20:00,76.6,60.7,29.98,SSW,210,2.0,2.0,58,0.00,,OVC003,0.00,VWS V14.01,2013-07-11 21:20:00,
2013-07-11 17:23:00,76.4,62.0,29.98,SSW,210,2.0,2.0,61,0.00,,OVC003,0.00,VWS V14.01,2013-07-11 21:23:00,
2013-07-11 17:25:00,76.9,61.0,29.98,SSW,210,2.0,2.0,58,0.00,,OVC003,0.00,VWS V14.01,2013-07-11 21:25:00,
2013-07-11 17:28:00,76.6,60.7,29.98,SSW,210,2.0,0.0,58,0.00,,OVC003,0.00,VWS V14.01,2013-07-11 21:28:00,
2013-07-11 17:30:00,76.9,61.5,29.98,SSW,210,2.0,0.0,59,0.00,,OVC003,0.00,VWS V14.01,2013-07-11 21:30:00,
2013-07-11 17:34:00,76.9,61.0,29.98,SSW,210,2.0,0.0,58,0.00,,OVC003,0.00,VWS V14.01,2013-07-11 21:34:00,
2013-07-11 17:35:00,77.1,61.7,29.98,SSW,210,2.0,2.0,59,0.00,,OVC003,0.00,VWS V14.01,2013-07-11 21:35:00,
2013-07-11 17:39:00,76.9,62.4,29.98,SSW,210,2.0,2.0,61,0.00,,OVC003,0.00,VWS V14.01,2013-07-11 21:39:00,
2013-07-11 17:40:00,77.7,61.8,29.98,SSW,210,2.0,2.0,58,0.00,,OVC003,0.00,VWS V14.01,2013-07-11 21:40:00,
2013-07-11 17:44:00,77.3,61.9,29.98,SSW,210,2.0,0.0,59,0.00,,OVC003,0.00,VWS V14.01,2013-07-11 21:44:00,
2013-07-11 17:45:00,77.7,61.3,29.97,SSW,210,2.0,2.0,57,0.00,,OVC003,0.00,VWS V14.01,2013-07-11 21:45:00,
2013-07-11 17:49:00,77.8,61.9,29.98,SSW,210,2.0,2.0,58,0.00,,OVC003,0.00,VWS V14.01,2013-07-11 21:49:00,
2013-07-11 17:50:00,77.5,61.1,29.97,SSW,210,2.0,2.0,57,0.00,,OVC003,0.00,VWS V14.01,2013-07-11 21:50:00,
2013-07-11 17:54:00,77.6,61.7,29.97,SSW,210,2.0,2.0,58,0.00,,OVC003,0.00,VWS V14.01,2013-07-11 21:54:00,
2013-07-11 17:55:00,77.3,61.9,29.97,SSW,210,3.0,3.0,59,0.00,,OVC003,0.00,VWS V14.01,2013-07-11 21:55:00,
2013-07-11 18:00:00,77.5,61.6,29.97,SSW,210,3.0,3.0,58,0.00,,OVC003,0.00,VWS V14.01,2013-07-11 22:00:00,
2013-07-11 18:05:00,77.3,61.4,29.97,SSW,210,2.0,2.0,58,0.00,,OVC003,0.00,VWS V14.01,2013-07-11 22:05:00,
2013-07-11 18:10:00,77.3,61.4,29.98,SSW,210,2.0,2.0,58,0.00,,OVC003,0.00,VWS V14.01,2013-07-11 22:10:00,
2013-07-11 18:15:00,77.1,62.2,29.98,SSW,210,2.0,2.0,60,0.00,,OVC003,0.00,VWS V14.01,2013-07-11 22:15:00,
2013-07-11 18:16:00,77.1,61.7,29.98,SSW,210,2.0,0.0,59,0.00,,OVC003,0.00,VWS V14.01,2013-07-11 22:16:00,
2013-07-11 18:20:00,77.1,62.2,29.98,SSW,210,2.0,2.0,60,0.00,,OVC003,0.00,VWS V14.01,2013-07-11 22:20:00,
2013-07-11 18:21:00,77.1,61.7,29.98,SSW,210,2.0,2.0,59,0.00,,OVC003,0.00,VWS V14.01,2013-07-11 22:21:00,
2013-07-11 18:25:00,76.9,62.0,29.98,SSW,210,2.0,2.0,60,0.00,,OVC003,0.00,VWS V14.01,2013-07-11 22:25:00,
2013-07-11 18:27:00,77.1,62.6,29.98,SSW,210,2.0,2.0,61,0.00,,OVC003,0.00,VWS V14.01,2013-07-11 22:27:00,
2013-07-11 18:30:00,76.8,61.9,29.98,SSW,210,2.0,2.0,60,0.00,,OVC003,0.00,VWS V14.01,2013-07-11 22:30:00,
2013-07-11 18:32:00,77.0,62.1,29.98,SSW,210,2.0,2.0,60,0.00,,OVC003,0.00,VWS V14.01,2013-07-11 22:32:00,
2013-07-11 18:35:00,76.6,61.7,29.98,SSW,210,2.0,2.0,60,0.00,,OVC003,0.00,VWS V14.01,2013-07-11 22:35:00,
2013-07-11 18:37:00,76.9,62.0,29.98,SSW,210,2.0,2.0,60,0.00,,OVC003,0.00,VWS V14.01,2013-07-11 22:37:00,
2013-07-11 18:40:00,76.6,62.2,29.98,SSW,210,2.0,2.0,61,0.00,,OVC003,0.00,VWS V14.01,2013-07-11 22:40:00,
2013-07-11 18:42:00,76.6,61.7,29.98,SSW,210,2.0,2.0,60,0.00,,OVC003,0.00,VWS V14.01,2013-07-11 22:42:00,
2013-07-11 18:45:00,76.2,61.3,29.98,SSW,211,2.0,3.0,60,0.00,,OVC003,0.00,VWS V14.01,2013-07-11 22:45:00,
2013-07-11 18:47:00,76.6,62.2,29.98,SSW,210,2.0,2.0,61,0.00,,OVC003,0.00,VWS V14.01,2013-07-11 22:47:00,
2013-07-11 18:50:00,75.7,61.3,29.98,SSW,210,3.0,3.0,61,0.00,,OVC003,0.00,VWS V14.01,2013-07-11 22:50:00,
2013-07-11 18:52:00,76.2,61.8,29.98,SSW,211,5.0,5.0,61,0.00,,OVC003,0.00,VWS V14.01,2013-07-11 22:52:00,
2013-07-11 18:55:00,75.5,62.0,29.98,NNE,28,2.0,2.0,63,0.00,,OVC003,0.00,VWS V14.01,2013-07-11 22:55:00,
2013-07-11 18:57:00,75.7,61.8,29.98,SSW,210,2.0,2.0,62,0.00,,OVC003,0.00,VWS V14.01,2013-07-11 22:57:00,
2013-07-11 19:00:00,75.2,61.3,29.98,NNE,28,2.0,2.0,62,0.00,,OVC003,0.00,VWS V14.01,2013-07-11 23:00:00,
2013-07-11 19:02:00,75.5,62.0,29.98,NNE,28,2.0,2.0,63,0.00,,OVC003,0.00,VWS V14.01,2013-07-11 23:02:00,
2013-07-11 19:05:00,74.6,61.2,29.98,NNE,28,2.0,2.0,63,0.00,,OVC003,0.00,VWS V14.01,2013-07-11 23:05:00,
2013-07-11 19:07:00,75.2,61.3,29.98,NNE,28,3.0,3.0,62,0.00,,OVC003,0.00,VWS V14.01,2013-07-11 23:07:00,
2013-07-11 19:10:00,73.8,60.9,29.98,NNE,28,2.0,2.0,64,0.00,,OVC003,0.00,VWS V14.01,2013-07-11 23:10:00,
2013-07-11 19:12:00,74.6,61.2,29.98,NNE,28,2.0,2.0,63,0.00,,OVC003,0.00,VWS V14.01,2013-07-11 23:12:00,
2013-07-11 19:15:00,73.2,60.7,29.98,NNE,20,2.0,3.0,65,0.00,,OVC003,0.00,VWS V14.01,2013-07-11 23:15:00,
2013-07-11 19:20:00,73.5,61.0,29.98,NNE,28,2.0,2.0,65,0.00,,OVC003,0.00,VWS V14.01,2013-07-11 23:20:00,
2013-07-11 19:25:00,72.9,60.9,29.98,NNE,20,2.0,0.0,66,0.00,,OVC003,0.00,VWS V14.01,2013-07-11 23:25:00,
2013-07-11 19:30:00,72.5,60.9,29.98,NNE,20,2.0,0.0,67,0.00,,OVC003,0.00,VWS V14.01,2013-07-11 23:30:00,
2013-07-11 19:35:00,72.1,61.0,29.98,NNE,20,2.0,0.0,68,0.00,,OVC003,0.00,VWS V14.01,2013-07-11 23:35:00,
2013-07-11 19:40:00,71.8,60.7,29.98,ENE,78,2.0,2.0,68,0.00,,OVC003,0.00,VWS V14.01,2013-07-11 23:40:00,
2013-07-11 19:45:00,70.9,60.6,29.99,ENE,78,2.0,2.0,70,0.00,,OVC003,0.00,VWS V14.01,2013-07-11 23:45:00,
2013-07-11 19:46:00,71.3,60.6,29.98,ENE,78,2.0,0.0,69,0.00,,OVC003,0.00,VWS V14.01,2013-07-11 23:46:00,
2013-07-11 19:50:00,70.6,60.8,29.99,ENE,78,2.0,2.0,71,0.00,,OVC003,0.00,VWS V14.01,2013-07-11 23:50:00,
2013-07-11 19:51:00,71.0,60.3,29.98,ENE,78,2.0,2.0,69,0.00,,OVC003,0.00,VWS V14.01,2013-07-11 23:51:00,
2013-07-11 19:55:00,70.3,60.5,29.99,ENE,78,2.0,2.0,71,0.00,,OVC003,0.00,VWS V14.01,2013-07-11 23:55:00,
2013-07-11 19:56:00,70.7,60.5,29.99,ENE,78,2.0,0.0,70,0.00,,OVC003,0.00,VWS V14.01,2013-07-11 23:56:00,
2013-07-11 20:00:00,70.1,60.3,29.99,ENE,78,2.0,2.0,71,0.00,,OVC003,0.00,VWS V14.01,2013-07-12 00:00:00,
2013-07-11 20:01:00,70.4,60.6,29.99,ENE,78,2.0,0.0,71,0.00,,OVC003,0.00,VWS V14.01,2013-07-12 00:01:00,
2013-07-11 20:05:00,69.8,60.4,29.99,ENE,78,2.0,0.0,72,0.00,,OVC003,0.00,VWS V14.01,2013-07-12 00:05:00,
2013-07-11 20:06:00,70.2,60.4,29.99,ENE,78,2.0,2.0,71,0.00,,OVC003,0.00,VWS V14.01,2013-07-12 00:06:00,
2013-07-11 20:10:00,69.5,59.7,29.99,ENE,75,2.0,2.0,71,0.00,,OVC003,0.00,VWS V14.01,2013-07-12 00:10:00,
2013-07-11 20:11:00,69.9,60.1,29.99,ENE,78,2.0,0.0,71,0.00,,OVC003,0.00,VWS V14.01,2013-07-12 00:11:00,
2013-07-11 20:15:00,69.2,59.8,29.99,ENE,75,2.0,2.0,72,0.00,,OVC003,0.00,VWS V14.01,2013-07-12 00:15:00,
2013-07-11 20:17:00,69.5,59.7,29.99,ENE,75,2.0,2.0,71,0.00,,OVC003,0.00,VWS V14.01,2013-07-12 00:17:00,
2013-07-11 20:20:00,69.0,59.6,29.99,ENE,75,2.0,0.0,72,0.00,,OVC003,0.00,VWS V14.01,2013-07-12 00:20:00,
2013-07-11 20:22:00,69.2,59.8,29.99,ENE,75,2.0,2.0,72,0.00,,OVC003,0.00,VWS V14.01,2013-07-12 00:22:00,
2013-07-11 20:25:00,68.7,59.3,29.99,ENE,75,2.0,2.0,72,0.00,,OVC003,0.00,VWS V14.01,2013-07-12 00:25:00,
2013-07-11 20:27:00,69.0,59.6,29.99,ENE,75,2.0,0.0,72,0.00,,OVC003,0.00,VWS V14.01,2013-07-12 00:27:00,
2013-07-11 20:30:00,68.4,59.0,29.99,ENE,75,2.0,2.0,72,0.00,,OVC003,0.00,VWS V14.01,2013-07-12 00:30:00,
2013-07-11 20:33:00,68.7,59.3,29.99,ENE,75,2.0,0.0,72,0.00,,OVC003,0.00,VWS V14.01,2013-07-12 00:33:00,
2013-07-11 20:35:00,68.2,59.2,29.99,ENE,75,2.0,0.0,73,0.00,,OVC003,0.00,VWS V14.01,2013-07-12 00:35:00,
2013-07-11 20:38:00,68.3,58.9,29.99,ENE,75,2.0,0.0,72,0.00,,OVC003,0.00,VWS V14.01,2013-07-12 00:38:00,
2013-07-11 20:40:00,68.0,59.0,29.99,ENE,75,2.0,0.0,73,0.00,,OVC003,0.00,VWS V14.01,2013-07-12 00:40:00,
2013-07-11 20:43:00,68.1,59.1,29.99,ENE,75,2.0,0.0,73,0.00,,OVC003,0.00,VWS V14.01,2013-07-12 00:43:00,
2013-07-11 20:45:00,67.7,58.7,29.99,ENE,75,2.0,0.0,73,0.00,,OVC003,0.00,VWS V14.01,2013-07-12 00:45:00,
2013-07-11 20:48:00,67.9,58.9,29.99,ENE,75,2.0,0.0,73,0.00,,OVC003,0.00,VWS V14.01,2013-07-12 00:48:00,
2013-07-11 20:50:00,67.4,58.5,29.99,ENE,75,2.0,0.0,73,0.00,,OVC003,0.00,VWS V14.01,2013-07-12 00:50:00,
2013-07-11 20:54:00,67.7,58.7,29.99,ENE,75,2.0,0.0,73,0.00,,OVC003,0.00,VWS V14.01,2013-07-12 00:54:00,
2013-07-11 20:55:00,67.2,58.6,29.99,ENE,75,2.0,0.0,74,0.00,,OVC003,0.00,VWS V14.01,2013-07-12 00:55:00,
2013-07-11 20:59:00,67.4,58.8,29.99,ENE,75,2.0,0.0,74,0.00,,OVC003,0.00,VWS V14.01,2013-07-12 00:59:00,
2013-07-11 21:00:00,66.9,58.3,29.99,ENE,75,2.0,0.0,74,0.00,,OVC003,0.00,VWS V14.01,2013-07-12 01:00:00,
2013-07-11 21:04:00,67.1,58.5,29.99,ENE,75,2.0,0.0,74,0.00,,OVC003,0.00,VWS V14.01,2013-07-12 01:04:00,
2013-07-11 21:05:00,66.7,58.2,29.99,ENE,75,2.0,0.0,74,0.00,,OVC003,0.00,VWS V14.01,2013-07-12 01:05:00,
2013-07-11 21:10:00,66.8,58.3,29.99,ENE,75,2.0,0.0,74,0.00,,OVC003,0.00,VWS V14.01,2013-07-12 01:10:00,
2013-07-11 21:15:00,66.2,58.0,29.99,ENE,75,2.0,0.0,75,0.00,,OVC003,0.00,VWS V14.01,2013-07-12 01:15:00,
2013-07-11 21:16:00,66.5,58.0,29.99,ENE,75,2.0,0.0,74,0.00,,OVC003,0.00,VWS V14.01,2013-07-12 01:16:00,
2013-07-11 21:20:00,66.0,57.9,29.99,ENE,75,2.0,0.0,75,0.00,,OVC003,0.00,VWS V14.01,2013-07-12 01:20:00,
2013-07-11 21:22:00,66.2,58.0,29.99,ENE,75,2.0,0.0,75,0.00,,OVC003,0.00,VWS V14.01,2013-07-12 01:22:00,
2013-07-11 21:25:00,65.8,57.7,29.99,ENE,75,2.0,0.0,75,0.00,,OVC003,0.00,VWS V14.01,2013-07-12 01:25:00,
2013-07-11 21:27:00,66.1,58.0,29.99,ENE,75,2.0,0.0,75,0.00,,OVC003,0.00,VWS V14.01,2013-07-12 01:27:00,
2013-07-11 21:30:00,65.6,57.8,29.99,ENE,75,2.0,0.0,76,0.00,,OVC003,0.00,VWS V14.01,2013-07-12 01:30:00,
2013-07-11 21:32:00,65.9,57.8,29.99,ENE,75,2.0,0.0,75,0.00,,OVC003,0.00,VWS V14.01,2013-07-12 01:32:00,
2013-07-11 21:35:00,65.4,57.7,29.99,ENE,75,2.0,0.0,76,0.00,,OVC003,0.00,VWS V14.01,2013-07-12 01:35:00,
2013-07-11 21:37:00,65.6,57.8,29.99,ENE,75,2.0,0.0,76,0.00,,OVC003,0.00,VWS V14.01,2013-07-12 01:37:00,
2013-07-11 21:40:00,65.2,57.8,29.99,ENE,75,2.0,0.0,77,0.00,,OVC003,0.00,VWS V14.01,2013-07-12 01:40:00,
2013-07-11 21:42:00,65.4,57.7,29.99,ENE,75,2.0,0.0,76,0.00,,OVC003,0.00,VWS V14.01,2013-07-12 01:42:00,
2013-07-11 21:45:00,65.0,57.6,29.99,ENE,75,2.0,0.0,77,0.00,,OVC003,0.00,VWS V14.01,2013-07-12 01:45:00,
2013-07-11 21:47:00,65.2,57.8,29.99,ENE,75,2.0,0.0,77,0.00,,OVC003,0.00,VWS V14.01,2013-07-12 01:47:00,
2013-07-11 21:50:00,64.8,57.4,29.99,ENE,75,2.0,0.0,77,0.00,,OVC003,0.00,VWS V14.01,2013-07-12 01:50:00,
2013-07-11 21:52:00,65.0,57.6,29.99,ENE,75,2.0,0.0,77,0.00,,OVC003,0.00,VWS V14.01,2013-07-12 01:52:00,
2013-07-11 21:55:00,64.6,57.6,29.99,ENE,75,2.0,0.0,78,0.00,,OVC003,0.00,VWS V14.01,2013-07-12 01:55:00,
2013-07-11 21:58:00,64.8,57.4,29.99,ENE,75,2.0,0.0,77,0.00,,OVC003,0.00,VWS V14.01,2013-07-12 01:58:00,
2013-07-11 22:00:00,64.4,57.4,30.00,ENE,75,2.0,0.0,78,0.00,,OVC003,0.00,VWS V14.01,2013-07-12 02:00:00,
2013-07-11 22:04:00,64.6,57.6,29.99,ENE,75,2.0,0.0,78,0.00,,OVC003,0.00,VWS V14.01,2013-07-12 02:04:00,
2013-07-11 22:05:00,64.3,57.3,30.00,ENE,75,2.0,0.0,78,0.00,,OVC003,0.00,VWS V14.01,2013-07-12 02:05:00,
2013-07-11 22:09:00,64.4,57.4,30.00,ENE,75,2.0,0.0,78,0.00,,OVC003,0.00,VWS V14.01,2013-07-12 02:09:00,
2013-07-11 22:10:00,64.1,57.1,30.00,ENE,75,2.0,0.0,78,0.00,,OVC003,0.00,VWS V14.01,2013-07-12 02:10:00,
2013-07-11 22:14:00,64.2,57.2,30.00,ENE,75,2.0,0.0,78,0.00,,OVC003,0.00,VWS V14.01,2013-07-12 02:14:00,
2013-07-11 22:15:00,64.0,57.4,30.00,ENE,75,2.0,0.0,79,0.00,,OVC003,0.00,VWS V14.01,2013-07-12 02:15:00,
2013-07-11 22:20:00,64.0,57.4,30.00,ENE,75,2.0,0.0,79,0.00,,OVC003,0.00,VWS V14.01,2013-07-12 02:20:00,
2013-07-11 22:25:00,63.7,57.1,30.00,ENE,75,2.0,0.0,79,0.00,,OVC003,0.00,VWS V14.01,2013-07-12 02:25:00,
2013-07-11 22:26:00,63.9,57.3,30.00,ENE,75,2.0,0.0,79,0.00,,OVC003,0.00,VWS V14.01,2013-07-12 02:26:00,
2013-07-11 22:30:00,63.6,57.0,30.00,ENE,75,2.0,0.0,79,0.00,,OVC003,0.00,VWS V14.01,2013-07-12 02:30:00,
2013-07-11 22:31:00,63.7,57.1,30.00,ENE,75,2.0,0.0,79,0.00,,OVC003,0.00,VWS V14.01,2013-07-12 02:31:00,
2013-07-11 22:35:00,63.4,57.1,30.00,ENE,75,2.0,0.0,80,0.00,,OVC003,0.00,VWS V14.01,2013-07-12 02:35:00,
2013-07-11 22:36:00,63.6,57.0,30.00,ENE,75,2.0,0.0,79,0.00,,OVC003,0.00,VWS V14.01,2013-07-12 02:36:00,
2013-07-11 22:40:00,63.3,57.0,30.00,ENE,75,2.0,0.0,80,0.00,,OVC003,0.00,VWS V14.01,2013-07-12 02:40:00,
2013-07-11 22:41:00,63.5,56.9,30.00,ENE,75,2.0,0.0,79,0.00,,OVC003,0.00,VWS V14.01,2013-07-12 02:41:00,
2013-07-11 22:45:00,63.2,56.9,30.01,ENE,75,2.0,0.0,80,0.00,,OVC003,0.00,VWS V14.01,2013-07-12 02:45:00,
2013-07-11 22:46:00,63.3,57.0,30.00,ENE,75,2.0,0.0,80,0.00,,OVC003,0.00,VWS V14.01,2013-07-12 02:46:00,
2013-07-11 22:50:00,63.1,56.8,30.01,ENE,75,2.0,0.0,80,0.00,,OVC003,0.00,VWS V14.01,2013-07-12 02:50:00,
2013-07-11 22:51:00,63.2,56.9,30.00,ENE,75,2.0,0.0,80,0.00,,OVC003,0.00,VWS V14.01,2013-07-12 02:51:00,
2013-07-11 22:55:00,62.9,57.0,30.01,ENE,75,2.0,0.0,81,0.00,,OVC003,0.00,VWS V14.01,2013-07-12 02:55:00,
2013-07-11 22:58:00,63.1,56.8,30.01,ENE,75,2.0,0.0,80,0.00,,OVC003,0.00,VWS V14.01,2013-07-12 02:58:00,
2013-07-11 23:00:00,62.8,56.9,30.01,ENE,75,2.0,0.0,81,0.00,,OVC003,0.00,VWS V14.01,2013-07-12 03:00:00,
2013-07-11 23:03:00,62.9,57.0,30.01,ENE,75,2.0,0.0,81,0.00,,OVC003,0.00,VWS V14.01,2013-07-12 03:03:00,
2013-07-11 23:05:00,62.7,56.8,30.01,ENE,75,2.0,0.0,81,0.00,,OVC003,0.00,VWS V14.01,2013-07-12 03:05:00,
2013-07-11 23:08:00,62.8,56.9,30.01,ENE,75,2.0,0.0,81,0.00,,OVC003,0.00,VWS V14.01,2013-07-12 03:08:00,
2013-07-11 23:10:00,62.6,57.0,30.01,ENE,75,2.0,0.0,82,0.00,,OVC003,0.00,VWS V14.01,2013-07-12 03:10:00,
2013-07-11 23:13:00,62.7,56.8,30.01,ENE,75,2.0,0.0,81,0.00,,OVC003,0.00,VWS V14.01,2013-07-12 03:13:00,
2013-07-11 23:15:00,62.5,56.9,30.01,ENE,75,2.0,0.0,82,0.00,,OVC003,0.00,VWS V14.01,2013-07-12 03:15:00,
2013-07-11 23:18:00,62.6,57.0,30.01,ENE,75,2.0,0.0,82,0.00,,OVC003,0.00,VWS V14.01,2013-07-12 03:18:00,
2013-07-11 23:20:00,62.4,56.8,30.01,ENE,75,2.0,0.0,82,0.00,,OVC003,0.00,VWS V14.01,2013-07-12 03:20:00,
2013-07-11 23:23:00,62.5,56.9,30.01,ENE,75,2.0,0.0,82,0.00,,OVC003,0.00,VWS V14.01,2013-07-12 03:23:00,
2013-07-11 23:25:00,62.2,56.7,30.01,ENE,75,2.0,0.0,82,0.00,,OVC003,0.00,VWS V14.01,2013-07-12 03:25:00,
2013-07-11 23:29:00,62.4,56.8,30.01,ENE,75,2.0,0.0,82,0.00,,OVC003,0.00,VWS V14.01,2013-07-12 03:29:00,
2013-07-11 23:30:00,62.1,56.9,30.01,ENE,75,2.0,0.0,83,0.00,,OVC003,0.00,VWS V14.01,2013-07-12 03:30:00,
2013-07-11 23:34:00,62.2,56.6,30.01,ENE,75,2.0,0.0,82,0.00,,OVC003,0.00,VWS V14.01,2013-07-12 03:34:00,
2013-07-11 23:35:00,62.0,56.8,30.01,ENE,75,2.0,0.0,83,0.00,,OVC003,0.00,VWS V14.01,2013-07-12 03:35:00,
2013-07-11 23:40:00,62.0,56.8,30.01,ENE,75,2.0,0.0,83,0.00,,OVC003,0.00,VWS V14.01,2013-07-12 03:40:00,
2013-07-11 23:45:00,61.9,56.7,30.01,ENE,75,2.0,0.0,83,0.00,,OVC003,0.00,VWS V14.01,2013-07-12 03:45:00,
2013-07-11 23:50:00,61.7,56.5,30.01,ENE,75,2.0,0.0,83,0.00,,OVC003,0.00,VWS V14.01,2013-07-12 03:50:00,
2013-07-11 23:55:00,61.4,56.5,30.02,ENE,75,2.0,0.0,84,0.00,,OVC003,0.00,VWS V14.01,2013-07-12 03:55:00,